Content
SEND FEEDBACK

Daily
Averages
Monthly
Summary
United States of America

SKYLAND, NORTH CAROLINA


Home > North America > United States > North Carolina
Elevation: 2246 feet     Latitude: 35 30N     Longitude: 082 36W

WEATHER
 
SELECT A DAY
Number of Records: 228,713;   Date Range: 1/1/95 - 9/29/14
 
SHARE

PRINT THIS DATA

[ ← Previous Day ]
WEATHER ALMANAC - MARCH 29, 2013
[ Next Day → ]
[ °C ]   °F
Weather ElementAverageHighLow
Temperature39.8 °F55 °F (1:54 pm)26.1 °F (7:54 am)
Dewpoint26.5 °F37.9 °F (8:54 pm)19 °F (12:54 pm)
Humidity64.4 %93 % (10:54 pm)25 % (12:54 pm)
Barometer30.29 in30.34 in (7:54 am)30.23 in (11:54 pm)
Wind Speed6.9 mph16.1 mph (3:54 pm)
Wind Gust17.3 mph (5:54 pm)
Weather ElementAverage
Visibility10 mi
Wind DirectionWSW (250.9 °)

Weather ElementTotal
Precipitation0.01 in
Heating Degree Days24.5 (Base 65)
Averaged from 23 records on March 29, 2013
WEATHER CONDITIONS BREAKOUT
WIND DIRECTION BREAKOUT
WEATHER BY HOUR - MARCH 29, 2013
[ °C ]   °F
Local TimeTemperatureDewpointHumidityBarometerVisibilityWind DirectionWind SpeedGust SpeedPrecipitationEventsConditions
1:54 AM28.9 °F21.0 °F72 %30.32 in10.0 miCalmClear
2:54 AM27.0 °F21.0 °F78 %30.31 in10.0 miNNW (340°)8.1 mphClear
3:54 AM27.0 °F21.0 °F78 %30.29 in10.0 miNNW (340°)9.2 mphClear
4:54 AM28.0 °F21.0 °F75 %30.30 in10.0 miSW (230°)3.5 mphClear
5:54 AM28.9 °F21.0 °F72 %30.30 in10.0 miNNW (340°)8.1 mphClear
6:54 AM28.0 °F21.0 °F75 %30.32 in10.0 miNNW (340°)8.1 mphClear
7:54 AM26.1 °F21.0 °F81 %30.34 in10.0 miCalmClear
8:54 AM32.0 °F21.9 °F66 %30.34 in10.0 miCalmClear
9:54 AM37.9 °F24.1 °F57 %30.34 in10.0 miCalmClear
10:54 AM45.0 °F21.0 °F39 %30.32 in10.0 miWSW (240°)3.5 mphClear
11:54 AM50.0 °F19.9 °F31 %30.31 in10.0 miVariable3.5 mphClear
12:54 PM54.0 °F19.0 °F25 %30.27 in10.0 miSW (220°)5.8 mphPartly Cloudy
1:54 PM55.0 °F19.9 °F25 %30.25 in10.0 miNNW (330°)9.2 mph0.00 inRainLight Rain
2:54 PM54.0 °F19.9 °F26 %30.24 in10.0 miNNW (340°)11.5 mph0.00 inOvercast
3:54 PM53.1 °F25.0 °F34 %30.24 in10.0 miNW (320°)16.1 mphOvercast
4:54 PM48.0 °F33.1 °F56 %30.26 in10.0 miNNW (340°)10.4 mph0.00 inRainLight Rain
5:54 PM46.0 °F35.1 °F66 %30.26 in10.0 miNorth (350°)9.2 mph17.3 mph0.00 inOvercast
6:54 PM44.1 °F37.0 °F76 %30.27 in10.0 miNNW (340°)9.2 mph0.00 inOvercast
7:54 PM41.0 °F37.0 °F86 %30.27 in10.0 miNNW (330°)8.1 mph0.00 inRainLight Rain
8:54 PM41.0 °F37.9 °F89 %30.27 in10.0 miNNW (340°)10.4 mph0.00 inRainLight Rain
9:54 PM39.9 °F37.0 °F89 %30.26 in10.0 miNNW (340°)6.9 mph0.00 inOvercast
10:54 PM39.9 °F37.9 °F93 %30.25 in10.0 miNorth (350°)6.9 mph0.00 inRainLight Rain
11:54 PM39.9 °F37.9 °F93 %30.23 in10.0 miNNW (340°)11.5 mph0.01 inRainLight Rain
Hourly data recorded from KAVL, located miles away from Skyland, North Carolina







STORIES FROM OUR PARTNERS